NWS113 UAAA-UNNT

Flight info

Callsign NWS113
Flight time 1h 53m
Altitude 35000
Route DESOK L135 AGZ W360 LUNOV Z584 SOMIP L143 ELSUT G121 RUBID G831 ORPAS
Aircraft B738/M-SDE2E3FGHIRWXY/LB1

Departure

Time 2026-05-01 11:47
Airport Almaty International Airport (UAAA)

Arrival

Time 2026-05-01 13:41
Airport Novosibirsk Tolmachevo Airport (UNNT)
Time Latitude Longitude Altitude Speed Heading
2026-05-01 11:21 43.34680 77.01310 2237 ft 0 kts 245°
2026-05-01 11:32 43.34681 77.01310 2237 ft 0 kts 245°
2026-05-01 11:32 43.34686 77.01327 2237 ft 2 kts 245°
2026-05-01 11:32 43.34692 77.01346 2236 ft 2 kts 245°
2026-05-01 11:33 43.34699 77.01365 2236 ft 2 kts 245°
2026-05-01 11:33 43.34705 77.01384 2235 ft 2 kts 252°
2026-05-01 11:33 43.34706 77.01404 2235 ft 2 kts 284°
2026-05-01 11:33 43.34700 77.01423 2235 ft 2 kts 311°
2026-05-01 11:34 43.34688 77.01436 2235 ft 2 kts 338°
2026-05-01 11:34 43.34680 77.01440 2235 ft 0 kts 338°
2026-05-01 11:38 43.34681 77.01440 2235 ft 0 kts 335°
2026-05-01 11:38 43.34695 77.01431 2235 ft 4 kts 335°
2026-05-01 11:39 43.34734 77.01406 2233 ft 8 kts 334°
2026-05-01 11:39 43.34793 77.01428 2232 ft 11 kts 58°
2026-05-01 11:39 43.34806 77.01460 2232 ft 0 kts 62°
2026-05-01 11:39 43.34806 77.01462 2232 ft 1 kts 62°
2026-05-01 11:40 43.34816 77.01496 2232 ft 6 kts 79°
2026-05-01 11:40 43.34815 77.01584 2232 ft 12 kts 94°
2026-05-01 11:40 43.34808 77.01731 2232 ft 18 kts 94°
2026-05-01 11:40 43.34799 77.01924 2233 ft 21 kts 93°
2026-05-01 11:41 43.34790 77.02119 2233 ft 19 kts 93°
2026-05-01 11:41 43.34782 77.02296 2236 ft 17 kts 95°
2026-05-01 11:41 43.34772 77.02468 2237 ft 18 kts 93°
2026-05-01 11:41 43.34794 77.02640 2237 ft 19 kts 59°
2026-05-01 11:42 43.34876 77.02808 2236 ft 22 kts 61°
2026-05-01 11:42 43.34966 77.02989 2235 ft 24 kts 53°
2026-05-01 11:42 43.35067 77.03189 2236 ft 26 kts 57°
2026-05-01 11:42 43.35138 77.03341 2237 ft 14 kts 57°
2026-05-01 11:43 43.35191 77.03448 2239 ft 12 kts 55°
2026-05-01 11:43 43.35240 77.03542 2240 ft 12 kts 55°
2026-05-01 11:43 43.35297 77.03656 2241 ft 16 kts 57°
2026-05-01 11:44 43.35480 77.04027 2245 ft 30 kts 56°
2026-05-01 11:44 43.35616 77.04305 2245 ft 38 kts 56°
2026-05-01 11:44 43.35780 77.04633 2247 ft 42 kts 56°
2026-05-01 11:44 43.35944 77.04962 2249 ft 41 kts 57°
2026-05-01 11:45 43.36101 77.05281 2249 ft 39 kts 57°
2026-05-01 11:45 43.36250 77.05581 2250 ft 37 kts 55°
2026-05-01 11:45 43.36391 77.05868 2252 ft 31 kts 55°
2026-05-01 11:45 43.36472 77.06029 2253 ft 10 kts 55°
2026-05-01 11:46 43.36501 77.06117 2254 ft 10 kts 101°
2026-05-01 11:46 43.36443 77.06187 2257 ft 12 kts 149°
2026-05-01 11:46 43.36350 77.06190 2259 ft 14 kts 192°
2026-05-01 11:46 43.36251 77.06036 2258 ft 41 kts 236°
2026-05-01 11:47 43.35941 77.05415 2254 ft 114 kts 236°
2026-05-01 11:47 43.35373 77.04269 2249 ft 175 kts 235°
2026-05-01 11:47 43.34652 77.02782 2776 ft 187 kts 237°
2026-05-01 11:47 43.33934 77.01352 3635 ft 185 kts 237°
2026-05-01 11:48 43.33217 76.99892 4249 ft 188 kts 238°
2026-05-01 11:48 43.32497 76.98348 4604 ft 200 kts 238°
2026-05-01 11:48 43.31718 76.96713 4998 ft 210 kts 238°
2026-05-01 11:48 43.30956 76.94912 5182 ft 232 kts 251°
2026-05-01 11:49 43.30768 76.92687 5522 ft 245 kts 279°
2026-05-01 11:49 43.31390 76.90430 5867 ft 259 kts 305°
2026-05-01 11:49 43.32691 76.88686 6242 ft 271 kts 329°
2026-05-01 11:49 43.34395 76.87583 6809 ft 277 kts 339°
2026-05-01 11:50 43.36194 76.86652 7478 ft 278 kts 339°
2026-05-01 11:50 43.38018 76.85679 8151 ft 280 kts 338°
2026-05-01 11:50 43.39807 76.84663 8826 ft 282 kts 337°
2026-05-01 11:50 43.41634 76.83658 9478 ft 285 kts 342°
2026-05-01 11:51 43.43563 76.83167 9993 ft 287 kts
2026-05-01 11:51 43.45523 76.83648 10099 ft 289 kts 21°
2026-05-01 11:51 43.47316 76.85081 10324 ft 306 kts 38°
2026-05-01 11:51 43.48879 76.87157 10646 ft 322 kts 49°
2026-05-01 11:52 43.50262 76.89698 10954 ft 337 kts 55°
2026-05-01 11:52 43.51564 76.92436 11264 ft 352 kts 57°
2026-05-01 11:52 43.52905 76.95330 11669 ft 363 kts 57°
2026-05-01 11:52 43.54275 76.98263 12206 ft 369 kts 56°
2026-05-01 11:53 43.55667 77.01199 12942 ft 371 kts 56°
2026-05-01 11:53 43.57099 77.04184 13613 ft 373 kts 56°
2026-05-01 11:53 43.58540 77.07166 14224 ft 377 kts 55°
2026-05-01 11:53 43.59986 77.10151 14876 ft 381 kts 55°
2026-05-01 11:54 43.61456 77.13187 15524 ft 385 kts 55°
2026-05-01 11:54 43.62959 77.16296 16127 ft 390 kts 55°
2026-05-01 11:54 43.64460 77.19402 16703 ft 395 kts 55°
2026-05-01 11:54 43.65986 77.22565 17254 ft 400 kts 55°
2026-05-01 11:55 43.67622 77.25719 17801 ft 405 kts 50°
2026-05-01 11:55 43.69574 77.28469 18332 ft 407 kts 36°
2026-05-01 11:55 43.72033 77.30428 18909 ft 409 kts 20°
2026-05-01 11:55 43.74745 77.31491 19460 ft 411 kts
2026-05-01 11:56 43.77590 77.32133 20005 ft 415 kts
2026-05-01 11:56 43.80470 77.32663 20588 ft 418 kts
2026-05-01 11:56 43.83341 77.33150 21086 ft 422 kts
2026-05-01 11:56 43.86277 77.33639 21642 ft 425 kts
2026-05-01 11:57 43.89202 77.34133 22115 ft 430 kts
2026-05-01 11:57 43.91195 77.34525 22447 ft 433 kts
2026-05-01 11:57 43.95102 77.35809 23096 ft 439 kts 17°
2026-05-01 11:57 43.97925 77.37543 23597 ft 445 kts 27°
2026-05-01 11:58 44.00504 77.39894 24080 ft 450 kts 36°
2026-05-01 11:58 44.02804 77.42828 24574 ft 454 kts 46°
2026-05-01 11:58 44.06309 77.50144 25462 ft 462 kts 64°
2026-05-01 11:59 44.07520 77.54330 25824 ft 467 kts 70°
2026-05-01 11:59 44.08436 77.58634 26180 ft 471 kts 76°
2026-05-01 11:59 44.09105 77.63138 26561 ft 475 kts 77°
2026-05-01 12:00 44.11391 77.71718 27358 ft 480 kts 60°
2026-05-01 12:00 44.13241 77.75616 27781 ft 480 kts 51°
2026-05-01 12:00 44.18074 77.81981 28509 ft 482 kts 32°
2026-05-01 12:01 44.20940 77.84434 28760 ft 486 kts 27°
2026-05-01 12:01 44.23866 77.86839 29138 ft 488 kts 31°
2026-05-01 12:01 44.26663 77.89584 29587 ft 490 kts 35°
2026-05-01 12:01 44.29391 77.92490 29970 ft 491 kts 33°
2026-05-01 12:02 44.32254 77.95072 30364 ft 490 kts 27°
2026-05-01 12:02 44.35274 77.97296 30736 ft 490 kts 23°
2026-05-01 12:02 44.38394 77.99307 31066 ft 491 kts 20°
2026-05-01 12:02 44.41522 78.01178 31375 ft 492 kts 19°
2026-05-01 12:03 44.44679 78.03006 31693 ft 494 kts 19°
2026-05-01 12:03 44.47867 78.04836 32079 ft 493 kts 18°
2026-05-01 12:03 44.51004 78.06650 32492 ft 492 kts 18°
2026-05-01 12:03 44.54150 78.08491 33202 ft 484 kts 18°
2026-05-01 12:04 44.57187 78.10299 33973 ft 475 kts 18°
2026-05-01 12:04 44.60202 78.12115 34580 ft 466 kts 18°
2026-05-01 12:04 44.63139 78.13889 34907 ft 463 kts 18°
2026-05-01 12:04 44.66117 78.15687 35062 ft 464 kts 18°
2026-05-01 12:05 44.69070 78.17471 35080 ft 467 kts 18°
2026-05-01 12:05 44.77998 78.22896 35076 ft 464 kts 18°
2026-05-01 12:06 44.83929 78.26515 35068 ft 466 kts 19°
2026-05-01 12:06 44.89862 78.30150 35052 ft 465 kts 18°
2026-05-01 12:07 44.95759 78.33774 35047 ft 462 kts 18°
2026-05-01 12:07 45.01628 78.37386 35014 ft 463 kts 18°
2026-05-01 12:08 45.07531 78.41027 35014 ft 461 kts 18°
2026-05-01 12:08 45.13385 78.44694 35031 ft 461 kts 20°
2026-05-01 12:09 45.19171 78.48648 35016 ft 463 kts 21°
2026-05-01 12:09 45.24908 78.52702 35037 ft 461 kts 22°
2026-05-01 12:10 45.33484 78.58759 35038 ft 461 kts 21°
2026-05-01 12:11 45.42039 78.64769 35034 ft 460 kts 21°
2026-05-01 12:11 45.47759 78.68783 35012 ft 460 kts 22°
2026-05-01 12:12 45.53514 78.72826 35004 ft 460 kts 22°
2026-05-01 12:12 45.59191 78.76818 35004 ft 459 kts 22°
2026-05-01 12:13 45.64897 78.80840 34999 ft 458 kts 22°
2026-05-01 12:13 45.70590 78.84849 35002 ft 457 kts 22°
2026-05-01 12:14 45.76282 78.88863 35001 ft 457 kts 22°
2026-05-01 12:14 45.81982 78.92888 34989 ft 457 kts 22°
2026-05-01 12:15 45.87660 78.96910 35000 ft 455 kts 22°
2026-05-01 12:15 45.93329 79.00935 34980 ft 456 kts 22°
2026-05-01 12:16 45.99024 79.04988 34979 ft 455 kts 22°
2026-05-01 12:16 46.04690 79.09031 34975 ft 456 kts 22°
2026-05-01 12:17 46.10363 79.13088 34969 ft 456 kts 22°
2026-05-01 12:17 46.16023 79.17145 34970 ft 455 kts 22°
2026-05-01 12:18 46.21680 79.21209 34965 ft 455 kts 22°
2026-05-01 12:18 46.27335 79.25280 34960 ft 455 kts 22°
2026-05-01 12:19 46.32983 79.29349 34958 ft 455 kts 22°
2026-05-01 12:19 46.38658 79.33338 34954 ft 454 kts 21°
2026-05-01 12:20 46.44332 79.37279 34959 ft 453 kts 21°
2026-05-01 12:20 46.49050 79.40559 34957 ft 454 kts 21°
2026-05-01 12:21 46.55671 79.45184 34952 ft 453 kts 21°
2026-05-01 12:21 46.61321 79.49153 34949 ft 452 kts 21°
2026-05-01 12:22 46.66028 79.52467 34948 ft 452 kts 21°
2026-05-01 12:22 46.72581 79.57095 34951 ft 452 kts 21°
2026-05-01 12:23 46.78266 79.61120 34950 ft 452 kts 21°
2026-05-01 12:23 46.83854 79.65086 34951 ft 451 kts 22°
2026-05-01 12:24 46.88556 79.68430 34951 ft 450 kts 22°
2026-05-01 12:24 46.95124 79.73113 34951 ft 451 kts 22°
2026-05-01 12:25 47.02592 79.78453 34956 ft 451 kts 22°
2026-05-01 12:26 47.09170 79.83169 34963 ft 451 kts 22°
2026-05-01 12:26 47.17592 79.89239 34969 ft 449 kts 22°
2026-05-01 12:27 47.25966 79.95325 34977 ft 450 kts 22°
2026-05-01 12:28 47.34345 80.01440 34987 ft 450 kts 22°
2026-05-01 12:29 47.42762 80.07601 34998 ft 451 kts 22°
2026-05-01 12:29 47.51139 80.13755 35004 ft 451 kts 22°
2026-05-01 12:30 47.59541 80.19952 35014 ft 450 kts 22°
2026-05-01 12:31 47.65131 80.24084 35018 ft 450 kts 23°
2026-05-01 12:31 47.70726 80.28230 35025 ft 451 kts 23°
2026-05-01 12:32 47.76294 80.32364 35032 ft 451 kts 23°
2026-05-01 12:32 47.83757 80.37928 35034 ft 450 kts 23°
2026-05-01 12:33 47.90313 80.42677 35028 ft 449 kts 19°
2026-05-01 12:33 47.93224 80.44160 35027 ft 443 kts
2026-05-01 12:33 47.96227 80.44748 35036 ft 438 kts 358°
2026-05-01 12:34 48.02291 80.44547 35028 ft 436 kts 353°
2026-05-01 12:34 48.08328 80.43910 35031 ft 436 kts 352°
2026-05-01 12:35 48.14359 80.43262 35034 ft 436 kts 352°
2026-05-01 12:35 48.20401 80.42670 35031 ft 438 kts 353°
2026-05-01 12:36 48.26472 80.42117 35040 ft 438 kts 353°
2026-05-01 12:36 48.32544 80.41585 35041 ft 438 kts 353°
2026-05-01 12:37 48.38657 80.41054 35370 ft 440 kts 353°
2026-05-01 12:37 48.40654 80.40881 35613 ft 438 kts 353°
2026-05-01 12:37 48.44724 80.40530 35937 ft 438 kts 353°
2026-05-01 12:38 48.47745 80.40267 36039 ft 440 kts 353°
2026-05-01 12:38 48.50778 80.40003 36038 ft 440 kts 353°
2026-05-01 12:38 48.56855 80.39477 36039 ft 437 kts 353°
2026-05-01 12:39 48.61902 80.39039 36039 ft 438 kts 353°
2026-05-01 12:39 48.69007 80.38416 36040 ft 438 kts 354°
2026-05-01 12:40 48.74066 80.37974 36036 ft 438 kts 354°
2026-05-01 12:40 48.81169 80.37350 36024 ft 439 kts 354°
2026-05-01 12:41 48.87253 80.36814 36022 ft 439 kts 354°
2026-05-01 12:41 48.93345 80.36276 36022 ft 440 kts 354°
2026-05-01 12:42 48.99443 80.35738 36028 ft 440 kts 354°
2026-05-01 12:42 49.05539 80.35197 36016 ft 441 kts 354°
2026-05-01 12:43 49.11650 80.34656 36020 ft 441 kts 354°
2026-05-01 12:43 49.17762 80.34112 36017 ft 441 kts 354°
2026-05-01 12:44 49.22855 80.33656 36013 ft 442 kts 354°
2026-05-01 12:45 49.36111 80.32468 36005 ft 442 kts 354°
2026-05-01 12:45 49.41260 80.32004 36005 ft 444 kts 354°
2026-05-01 12:46 49.48402 80.31360 36007 ft 444 kts 354°
2026-05-01 12:46 49.54558 80.30804 35997 ft 445 kts 354°
2026-05-01 12:47 49.60719 80.30245 35994 ft 445 kts 354°
2026-05-01 12:47 49.65900 80.29759 35995 ft 444 kts 354°
2026-05-01 12:48 49.73058 80.28956 35991 ft 445 kts 353°
2026-05-01 12:48 49.78198 80.28405 35990 ft 446 kts 354°
2026-05-01 12:49 49.85408 80.27760 35990 ft 446 kts 355°
2026-05-01 12:49 49.90555 80.27321 35989 ft 446 kts 355°
2026-05-01 12:50 49.97777 80.26696 35988 ft 445 kts 355°
2026-05-01 12:50 50.03942 80.26157 35990 ft 446 kts 355°
2026-05-01 12:51 50.10119 80.25610 35985 ft 446 kts 355°
2026-05-01 12:52 50.19430 80.24780 35974 ft 447 kts 355°
2026-05-01 12:52 50.27691 80.24040 36212 ft 450 kts 355°
2026-05-01 12:53 50.34924 80.24176 36965 ft 449 kts
2026-05-01 12:53 50.36971 80.24917 36965 ft 451 kts 16°
2026-05-01 12:54 50.43696 80.29424 36965 ft 450 kts 25°
2026-05-01 12:54 50.51086 80.35291 36969 ft 451 kts 26°
2026-05-01 12:55 50.60380 80.42660 36984 ft 451 kts 25°
2026-05-01 12:56 50.65077 80.46339 36987 ft 451 kts 25°
2026-05-01 12:56 50.71623 80.51446 36998 ft 451 kts 25°
2026-05-01 12:57 50.77192 80.55790 36995 ft 451 kts 25°
2026-05-01 12:57 50.84674 80.61638 36996 ft 451 kts 25°
2026-05-01 12:58 50.91228 80.66777 36986 ft 452 kts 26°
2026-05-01 12:59 50.98723 80.72671 36978 ft 451 kts 26°
2026-05-01 12:59 51.08052 80.80040 36982 ft 451 kts 26°
2026-05-01 13:00 51.15499 80.85947 36973 ft 451 kts 26°
2026-05-01 13:01 51.24821 80.93365 36973 ft 451 kts 26°
2026-05-01 13:02 51.33251 80.99998 36975 ft 451 kts 26°
2026-05-01 13:07 51.95672 81.28778 36992 ft 450 kts
2026-05-01 13:07 51.97744 81.29273 36988 ft 450 kts
2026-05-01 13:08 52.04958 81.31004 36984 ft 451 kts
2026-05-01 13:08 52.10095 81.32244 36985 ft 451 kts
2026-05-01 13:09 52.16272 81.33740 36978 ft 450 kts
2026-05-01 13:09 52.23483 81.35490 36978 ft 451 kts
2026-05-01 13:10 52.29668 81.36995 36972 ft 451 kts
2026-05-01 13:10 52.35860 81.38506 36978 ft 451 kts
2026-05-01 13:11 52.41010 81.39766 36978 ft 452 kts
2026-05-01 13:11 52.48242 81.41541 36978 ft 451 kts
2026-05-01 13:12 52.54427 81.43064 36975 ft 451 kts
2026-05-01 13:12 52.60609 81.44590 36976 ft 451 kts
2026-05-01 13:13 52.66777 81.46116 36967 ft 451 kts
2026-05-01 13:13 52.72959 81.47651 36980 ft 450 kts
2026-05-01 13:14 52.78099 81.48930 36970 ft 450 kts
2026-05-01 13:14 52.85283 81.50723 36975 ft 450 kts
2026-05-01 13:15 52.90464 81.52021 36978 ft 452 kts
2026-05-01 13:15 52.97656 81.53827 36980 ft 451 kts
2026-05-01 13:15 53.00771 81.54611 36809 ft 450 kts
2026-05-01 13:16 53.03820 81.55380 36382 ft 445 kts
2026-05-01 13:16 53.05863 81.55895 36087 ft 443 kts
2026-05-01 13:16 53.09896 81.56915 35329 ft 445 kts
2026-05-01 13:17 53.18038 81.58981 33953 ft 440 kts
2026-05-01 13:17 53.21031 81.59744 33466 ft 436 kts
2026-05-01 13:18 53.27940 81.61504 32356 ft 427 kts
2026-05-01 13:18 53.30832 81.62241 31887 ft 424 kts
2026-05-01 13:18 53.33743 81.62985 31411 ft 420 kts
2026-05-01 13:18 53.36599 81.63716 30949 ft 418 kts
2026-05-01 13:19 53.39489 81.64456 30484 ft 422 kts
2026-05-01 13:19 53.41419 81.64951 30157 ft 422 kts
2026-05-01 13:19 53.48083 81.66667 29050 ft 414 kts
2026-05-01 13:20 53.50005 81.67163 28731 ft 411 kts
2026-05-01 13:20 53.52815 81.67889 28269 ft 408 kts
2026-05-01 13:20 53.56484 81.68836 27661 ft 403 kts
2026-05-01 13:21 53.61078 81.70025 26885 ft 398 kts
2026-05-01 13:21 53.63779 81.70725 26423 ft 395 kts
2026-05-01 13:21 53.67358 81.71654 25812 ft 391 kts
2026-05-01 13:21 53.70051 81.72355 25346 ft 388 kts
2026-05-01 13:22 53.72674 81.73038 24896 ft 385 kts
2026-05-01 13:22 53.74444 81.73499 24584 ft 383 kts
2026-05-01 13:22 53.77080 81.74187 24130 ft 380 kts
2026-05-01 13:22 53.80525 81.75089 23534 ft 378 kts
2026-05-01 13:23 53.83107 81.75765 23094 ft 381 kts
2026-05-01 13:23 53.84863 81.76225 22791 ft 382 kts
2026-05-01 13:23 53.88323 81.77133 22187 ft 378 kts
2026-05-01 13:23 53.90059 81.77589 21886 ft 376 kts
2026-05-01 13:24 53.93471 81.78487 21287 ft 373 kts
2026-05-01 13:24 53.95181 81.78937 20988 ft 371 kts
2026-05-01 13:24 53.97695 81.79600 20545 ft 368 kts
2026-05-01 13:25 54.02710 81.80937 19643 ft 364 kts
2026-05-01 13:25 54.05965 81.82215 19042 ft 362 kts 14°
2026-05-01 13:25 54.07579 81.83010 18746 ft 360 kts 16°
2026-05-01 13:25 54.10732 81.84688 18158 ft 357 kts 17°
2026-05-01 13:26 54.13085 81.85961 17719 ft 355 kts 16°
2026-05-01 13:26 54.14681 81.86815 17423 ft 353 kts 16°
2026-05-01 13:26 54.17713 81.88409 16856 ft 350 kts 15°
2026-05-01 13:26 54.20028 81.89608 16426 ft 348 kts 15°
2026-05-01 13:27 54.22318 81.90784 16006 ft 345 kts 15°
2026-05-01 13:27 54.23858 81.91572 15718 ft 344 kts 15°
2026-05-01 13:27 54.28393 81.93892 14873 ft 339 kts 15°
2026-05-01 13:28 54.33611 81.96568 13901 ft 334 kts 15°
2026-05-01 13:28 54.35837 81.97713 13488 ft 332 kts 15°
2026-05-01 13:29 54.39491 81.99595 12809 ft 328 kts 15°
2026-05-01 13:29 54.44561 82.02214 11874 ft 323 kts 15°
2026-05-01 13:30 54.52356 82.06252 10433 ft 316 kts 16°
2026-05-01 13:31 54.56493 82.08402 9936 ft 302 kts 16°
2026-05-01 13:31 54.63085 82.11837 8792 ft 296 kts 17°
2026-05-01 13:32 54.66353 82.13545 8210 ft 293 kts 17°
2026-05-01 13:33 54.72138 82.16573 7168 ft 287 kts 18°
2026-05-01 13:33 54.75886 82.18532 6256 ft 282 kts 18°
2026-05-01 13:34 54.80266 82.20836 4844 ft 284 kts 19°
2026-05-01 13:34 54.83391 82.22485 4128 ft 280 kts 19°
2026-05-01 13:35 54.87049 82.24418 3574 ft 272 kts 20°
2026-05-01 13:35 54.89440 82.25685 3158 ft 270 kts 20°
2026-05-01 13:35 54.92983 82.27566 2678 ft 261 kts 20°
2026-05-01 13:36 54.94138 82.28178 2541 ft 257 kts 20°
2026-05-01 13:36 54.95839 82.29112 2285 ft 254 kts 24°
2026-05-01 13:36 54.98312 82.32728 2006 ft 221 kts 76°
2026-05-01 13:37 54.98569 82.35249 2023 ft 209 kts 90°
2026-05-01 13:37 54.98693 82.37671 2008 ft 196 kts 86°
2026-05-01 13:37 54.98906 82.39928 2012 ft 180 kts 84°
2026-05-01 13:37 54.99181 82.42672 2017 ft 171 kts 86°
2026-05-01 13:38 54.99543 82.46614 2033 ft 156 kts 86°
2026-05-01 13:38 54.99717 82.48465 1931 ft 155 kts 86°
2026-05-01 13:38 54.99825 82.49664 1749 ft 151 kts 86°
2026-05-01 13:39 54.99992 82.51454 1571 ft 148 kts 86°
2026-05-01 13:39 55.00156 82.53225 1385 ft 151 kts 85°
2026-05-01 13:39 55.00392 82.55637 1079 ft 149 kts 84°
2026-05-01 13:39 55.00542 82.57373 910 ft 146 kts 85°
2026-05-01 13:40 55.00701 82.59152 745 ft 148 kts 83°
2026-05-01 13:40 55.00812 82.60315 589 ft 148 kts 83°
2026-05-01 13:40 55.01033 82.62662 374 ft 148 kts 82°
2026-05-01 13:40 55.01127 82.63735 350 ft 116 kts 83°
2026-05-01 13:41 55.01218 82.64760 350 ft 51 kts 82°
2026-05-01 13:41 55.01211 82.65048 352 ft 19 kts 154°
2026-05-01 13:41 55.01067 82.65089 352 ft 10 kts 172°
2026-05-01 13:41 55.00990 82.65110 352 ft 11 kts 171°
2026-05-01 13:42 55.00914 82.65131 352 ft 9 kts 171°
2026-05-01 13:42 55.00885 82.65172 352 ft 8 kts 108°
2026-05-01 13:42 55.00883 82.65287 352 ft 13 kts 91°
2026-05-01 13:42 55.00898 82.65434 354 ft 12 kts 82°
2026-05-01 13:43 55.00912 82.65604 355 ft 9 kts 83°
2026-05-01 13:43 55.00921 82.65713 356 ft 7 kts 81°
2026-05-01 13:43 55.00929 82.65796 356 ft 6 kts 80°
2026-05-01 13:43 55.00938 82.65887 356 ft 8 kts 80°
2026-05-01 13:44 55.00948 82.65992 356 ft 8 kts 81°
2026-05-01 13:44 55.00958 82.66097 355 ft 8 kts 81°
2026-05-01 13:44 55.00967 82.66202 355 ft 8 kts 82°
2026-05-01 13:44 55.00981 82.66265 355 ft 8 kts 52°
2026-05-01 13:45 55.01008 82.66319 355 ft 3 kts 50°
2026-05-01 13:45 55.01028 82.66394 355 ft 5 kts 73°
2026-05-01 13:45 55.01039 82.66458 355 ft 6 kts 70°
2026-05-01 13:45 55.01057 82.66542 354 ft 4 kts 71°
2026-05-01 13:46 55.01044 82.66576 354 ft 4 kts 162°
2026-05-01 13:46 55.01017 82.66586 354 ft 0 kts 170°